Time,TemperatureF,DewpointF,PressureIn,WindDirection,WindDirectionDegrees,WindSpeedMPH,WindSpeedGustMPH,Humidity,HourlyPrecipIn,Conditions,Clouds,dailyrainin,SolarRadiationWatts/m^2,SoftwareType,DateUTC
2013-10-02 00:01:00,54.0,30.0,-100.00,NNW,346,0.0,0.0,40,0.00,,,0.00,0.000000,,2013-10-02 07:01:00,
2013-10-02 00:22:00,53.0,31.0,-100.00,North,8,0.0,0.0,43,0.00,,,-99.99,0.000000,,2013-10-02 07:22:00,
2013-10-02 00:32:00,53.0,31.0,-100.00,North,8,0.0,0.0,43,0.00,,,-99.99,0.000000,,2013-10-02 07:32:00,
2013-10-02 00:42:00,53.0,31.0,-100.00,North,8,0.0,0.0,43,0.00,,,-99.99,0.000000,,2013-10-02 07:42:00,
2013-10-02 00:52:00,53.0,31.0,-100.00,North,8,0.0,0.0,43,0.00,,,-99.99,0.000000,,2013-10-02 07:52:00,
2013-10-02 01:02:00,53.0,31.0,-100.00,North,8,0.0,0.0,43,0.00,,,-99.99,0.000000,,2013-10-02 08:02:00,
2013-10-02 01:22:00,50.0,29.0,-100.00,North,352,0.0,0.0,45,0.00,,,0.00,0.000000,,2013-10-02 08:22:00,
2013-10-02 01:32:00,50.0,29.0,-100.00,North,352,0.0,0.0,45,0.00,,,0.00,0.000000,,2013-10-02 08:32:00,
2013-10-02 01:42:00,50.0,29.0,-100.00,North,352,0.0,0.0,45,0.00,,,0.00,0.000000,,2013-10-02 08:42:00,
2013-10-02 01:52:00,50.0,29.0,-100.00,North,352,0.0,0.0,45,0.00,,,0.00,0.000000,,2013-10-02 08:52:00,
2013-10-02 02:01:00,50.0,29.0,-100.00,North,352,0.0,0.0,45,0.00,,,0.00,0.000000,,2013-10-02 09:01:00,
2013-10-02 02:43:00,51.0,30.0,-100.00,North,359,0.0,0.0,45,0.00,,,0.00,0.000000,,2013-10-02 09:43:00,
2013-10-02 02:54:00,51.0,30.0,-100.00,North,359,0.0,0.0,45,0.00,,,0.00,0.000000,,2013-10-02 09:54:00,
2013-10-02 03:02:00,51.0,30.0,-100.00,North,359,0.0,0.0,45,0.00,,,0.00,0.000000,,2013-10-02 10:02:00,
2013-10-02 03:03:00,50.0,30.0,-100.00,North,355,0.0,0.0,46,0.00,,,0.00,0.000000,,2013-10-02 10:03:00,
2013-10-02 03:42:00,50.0,30.0,-100.00,North,355,0.0,0.0,46,0.00,,,0.00,0.000000,,2013-10-02 10:42:00,
2013-10-02 03:52:00,50.0,30.0,-100.00,North,355,0.0,0.0,46,0.00,,,0.00,0.000000,,2013-10-02 10:52:00,
2013-10-02 04:43:00,49.0,30.0,-100.00,WNW,287,0.0,0.0,48,0.00,,,0.00,0.000000,,2013-10-02 11:43:00,
2013-10-02 04:52:00,49.0,30.0,-100.00,WNW,287,0.0,0.0,48,0.00,,,0.00,0.000000,,2013-10-02 11:52:00,
2013-10-02 05:02:00,49.0,30.0,-100.00,WNW,287,0.0,0.0,48,0.00,,,0.00,0.000000,,2013-10-02 12:02:00,
2013-10-02 05:22:00,48.0,30.0,-100.00,North,359,0.0,0.0,49,0.00,,,0.00,0.000000,,2013-10-02 12:22:00,
2013-10-02 05:32:00,48.0,30.0,-100.00,North,359,0.0,0.0,49,0.00,,,0.00,0.000000,,2013-10-02 12:32:00,
2013-10-02 05:42:00,48.0,30.0,-100.00,North,359,0.0,0.0,49,0.00,,,0.00,0.000000,,2013-10-02 12:42:00,
2013-10-02 05:52:00,48.0,30.0,-100.00,North,359,0.0,0.0,49,0.00,,,0.00,0.000000,,2013-10-02 12:52:00,
2013-10-02 06:02:00,48.0,30.0,-100.00,North,359,0.0,0.0,49,0.00,,,0.00,0.000000,,2013-10-02 13:02:00,
2013-10-02 06:42:00,48.0,30.0,-100.00,North,357,0.0,0.0,50,0.00,,,0.00,0.000000,,2013-10-02 13:42:00,
2013-10-02 06:52:00,48.0,30.0,-100.00,North,357,0.0,0.0,50,0.00,,,0.00,0.000000,,2013-10-02 13:52:00,
2013-10-02 07:02:00,48.0,30.0,-100.00,North,357,0.0,0.0,50,0.00,,,0.00,0.000000,,2013-10-02 14:02:00,
2013-10-02 07:42:00,46.0,29.0,-100.00,North,3,0.0,0.0,51,0.00,,,0.00,4.000000,,2013-10-02 14:42:00,
2013-10-02 07:52:00,46.0,29.0,-100.00,North,3,0.0,0.0,51,0.00,,,0.00,4.000000,,2013-10-02 14:52:00,
2013-10-02 08:01:00,46.0,29.0,-100.00,North,3,0.0,0.0,51,0.00,,,0.00,4.000000,,2013-10-02 15:01:00,
2013-10-02 08:03:00,49.0,32.0,-100.00,NNE,16,0.0,0.0,51,0.00,,,0.00,16.000000,,2013-10-02 15:03:00,
2013-10-02 08:22:00,49.0,32.0,-100.00,NNE,16,0.0,0.0,51,0.00,,,0.00,16.000000,,2013-10-02 15:22:00,
2013-10-02 08:33:00,49.0,32.0,-100.00,NNE,16,0.0,0.0,51,0.00,,,0.00,16.000000,,2013-10-02 15:33:00,
2013-10-02 08:43:00,49.0,32.0,-100.00,NNE,16,0.0,0.0,51,0.00,,,0.00,16.000000,,2013-10-02 15:43:00,
2013-10-02 08:54:00,49.0,32.0,-100.00,NNE,16,0.0,0.0,51,0.00,,,0.00,16.000000,,2013-10-02 15:54:00,
2013-10-02 09:43:00,62.0,37.0,-100.00,NNE,33,0.0,0.0,39,0.00,,,0.00,319.000000,,2013-10-02 16:43:00,
2013-10-02 09:52:00,62.0,37.0,-100.00,NNE,33,0.0,0.0,39,0.00,,,0.00,319.000000,,2013-10-02 16:52:00,
2013-10-02 10:02:00,62.0,37.0,-100.00,NNE,33,0.0,0.0,39,0.00,,,0.00,319.000000,,2013-10-02 17:02:00,
2013-10-02 10:42:00,74.0,40.0,-100.00,SSW,204,0.0,0.0,29,0.00,,,0.00,584.000000,,2013-10-02 17:42:00,
2013-10-02 10:52:00,74.0,40.0,-100.00,SSW,204,0.0,0.0,29,0.00,,,0.00,584.000000,,2013-10-02 17:52:00,
2013-10-02 11:02:00,74.0,40.0,-100.00,SSW,204,0.0,0.0,29,0.00,,,0.00,584.000000,,2013-10-02 18:02:00,
2013-10-02 11:22:00,74.0,41.0,-100.00,SSW,195,0.0,0.0,30,0.00,,,0.00,713.000000,,2013-10-02 18:22:00,
2013-10-02 11:32:00,74.0,41.0,-100.00,SSW,195,0.0,0.0,30,0.00,,,0.00,713.000000,,2013-10-02 18:32:00,
2013-10-02 11:42:00,74.0,41.0,-100.00,SSW,195,0.0,0.0,30,0.00,,,0.00,713.000000,,2013-10-02 18:42:00,
2013-10-02 11:52:00,74.0,41.0,-100.00,SSW,195,0.0,0.0,30,0.00,,,0.00,713.000000,,2013-10-02 18:52:00,
2013-10-02 12:02:00,74.0,41.0,-100.00,SSW,195,0.0,0.0,30,0.00,,,0.00,713.000000,,2013-10-02 19:02:00,
2013-10-02 12:22:00,75.0,40.0,-100.00,South,181,0.0,0.0,28,0.00,,,0.00,785.000000,,2013-10-02 19:22:00,
2013-10-02 12:32:00,75.0,40.0,-100.00,South,181,0.0,0.0,28,0.00,,,0.00,785.000000,,2013-10-02 19:32:00,
2013-10-02 12:42:00,75.0,40.0,-100.00,South,181,0.0,0.0,28,0.00,,,0.00,785.000000,,2013-10-02 19:42:00,
2013-10-02 12:52:00,75.0,40.0,-100.00,South,181,0.0,0.0,28,0.00,,,0.00,785.000000,,2013-10-02 19:52:00,
2013-10-02 13:02:00,75.0,40.0,-100.00,South,181,0.0,0.0,28,0.00,,,0.00,785.000000,,2013-10-02 20:02:00,
2013-10-02 13:22:00,78.0,40.0,-100.00,SSW,195,0.0,0.0,26,0.00,,,0.00,793.000000,,2013-10-02 20:22:00,
2013-10-02 13:32:00,78.0,40.0,-100.00,SSW,195,0.0,0.0,26,0.00,,,0.00,793.000000,,2013-10-02 20:32:00,
2013-10-02 13:42:00,78.0,40.0,-100.00,SSW,195,0.0,0.0,26,0.00,,,0.00,793.000000,,2013-10-02 20:42:00,
2013-10-02 13:52:00,78.0,40.0,-100.00,SSW,195,0.0,0.0,26,0.00,,,0.00,793.000000,,2013-10-02 20:52:00,
2013-10-02 14:01:00,78.0,40.0,-100.00,SSW,195,0.0,0.0,26,0.00,,,0.00,793.000000,,2013-10-02 21:01:00,
2013-10-02 14:03:00,78.0,38.0,-100.00,East,99,0.0,0.0,24,0.00,,,0.00,733.000000,,2013-10-02 21:03:00,
2013-10-02 14:44:00,78.0,38.0,-100.00,East,99,0.0,0.0,24,0.00,,,0.00,733.000000,,2013-10-02 21:44:00,
2013-10-02 14:54:00,78.0,38.0,-100.00,East,99,0.0,0.0,24,0.00,,,0.00,733.000000,,2013-10-02 21:54:00,
2013-10-02 15:03:00,77.0,35.0,-100.00,SSE,165,0.0,0.0,22,0.00,,,0.00,620.000000,,2013-10-02 22:03:00,
2013-10-02 15:44:00,77.0,35.0,-100.00,SSE,165,0.0,0.0,22,0.00,,,0.00,620.000000,,2013-10-02 22:44:00,
2013-10-02 15:53:00,77.0,35.0,-100.00,SSE,165,0.0,0.0,22,0.00,,,0.00,620.000000,,2013-10-02 22:53:00,
2013-10-02 16:42:00,79.0,37.0,-100.00,SSW,204,0.0,0.0,22,0.00,,,0.00,459.000000,,2013-10-02 23:42:00,
2013-10-02 16:52:00,79.0,37.0,-100.00,SSW,204,0.0,0.0,22,0.00,,,0.00,459.000000,,2013-10-02 23:52:00,
2013-10-02 17:02:00,79.0,37.0,-100.00,SSW,204,0.0,0.0,22,0.00,,,0.00,459.000000,,2013-10-03 00:02:00,
2013-10-02 17:22:00,69.0,36.0,-100.00,SW,214,0.0,0.0,30,0.00,,,0.00,226.000000,,2013-10-03 00:22:00,
2013-10-02 17:32:00,69.0,36.0,-100.00,SW,214,0.0,0.0,30,0.00,,,0.00,226.000000,,2013-10-03 00:32:00,
2013-10-02 17:42:00,69.0,36.0,-100.00,SW,214,0.0,0.0,30,0.00,,,0.00,226.000000,,2013-10-03 00:42:00,
2013-10-02 17:52:00,69.0,36.0,-100.00,SW,214,0.0,0.0,30,0.00,,,0.00,226.000000,,2013-10-03 00:52:00,
2013-10-02 18:02:00,69.0,36.0,-100.00,SW,214,0.0,0.0,30,0.00,,,0.00,226.000000,,2013-10-03 01:02:00,
2013-10-02 20:03:00,54.0,39.0,-100.00,North,349,0.0,0.0,56,-99.99,,,0.00,0.000000,,2013-10-03 03:03:00,
2013-10-02 20:44:00,54.0,39.0,-100.00,North,349,0.0,0.0,56,-99.99,,,0.00,0.000000,,2013-10-03 03:44:00,
2013-10-02 20:54:00,54.0,39.0,-100.00,North,349,0.0,0.0,56,-99.99,,,0.00,0.000000,,2013-10-03 03:54:00,
2013-10-02 21:03:00,51.0,36.0,-100.00,NNW,341,0.0,0.0,57,0.00,,,0.00,0.000000,,2013-10-03 04:03:00,
2013-10-02 21:44:00,51.0,36.0,-100.00,NNW,341,0.0,0.0,57,0.00,,,0.00,0.000000,,2013-10-03 04:44:00,
2013-10-02 21:53:00,51.0,36.0,-100.00,NNW,341,0.0,0.0,57,0.00,,,0.00,0.000000,,2013-10-03 04:53:00,
2013-10-02 22:23:00,50.0,35.0,-100.00,North,3,0.0,0.0,57,0.00,,,0.00,0.000000,,2013-10-03 05:23:00,
2013-10-02 22:33:00,50.0,35.0,-100.00,North,3,0.0,0.0,57,0.00,,,0.00,0.000000,,2013-10-03 05:33:00,
2013-10-02 22:43:00,50.0,35.0,-100.00,North,3,0.0,0.0,57,0.00,,,0.00,0.000000,,2013-10-03 05:43:00,
2013-10-02 22:52:00,50.0,35.0,-100.00,North,3,0.0,0.0,57,0.00,,,0.00,0.000000,,2013-10-03 05:52:00,
2013-10-02 23:02:00,50.0,35.0,-100.00,North,3,0.0,0.0,57,0.00,,,0.00,0.000000,,2013-10-03 06:02:00,
2013-10-02 23:22:00,53.0,35.0,-100.00,North,11,0.0,0.0,51,0.00,,,0.00,0.000000,,2013-10-03 06:22:00,
2013-10-02 23:32:00,53.0,35.0,-100.00,North,11,0.0,0.0,51,0.00,,,0.00,0.000000,,2013-10-03 06:32:00,
2013-10-02 23:42:00,53.0,35.0,-100.00,North,11,0.0,0.0,51,0.00,,,0.00,0.000000,,2013-10-03 06:42:00,
2013-10-02 23:52:00,53.0,35.0,-100.00,North,11,0.0,0.0,51,0.00,,,0.00,0.000000,,2013-10-03 06:52:00,